Location: ?????
(31.8092°N, 35.2590°E)
Time: 17:22:00
(UTC+00:00)

PEGASUS R/B - Pass Details

Date: 20 June 2021
Orbit: 297 x 3562 km, 105.6° (Epoch: 04 August)

Event Time Altitude Azimuth Distance (km) Brightness Sun altitude
Exits shadow 17:33:19 - 166° (SSE) 1,617 6.3 -9.1°
Reaches altitude 10° 17:33:42 10° 166° (SSE) 1,440 6.0 -9.2°
Maximum altitude 17:36:33 71° 252° (WSW) 552 4.4 -9.7°
Drops below altitude 10° 17:41:18 10° 336° (NNW) 2,388 8.6 -10.5°
Sets 17:44:28 0° 338° (NNW) 3,795 9.7 -11.0°
